Location: Wanzleben
(52.0609°N, 11.4408°E)
Time: 17:38:10
(UTC+00:00)

Envisat - Pass Details

Date: 25 November 2020
Orbit: 764 x 766 km, 98.1° (Epoch: 20 January)

Event Time Altitude Azimuth Distance (km) Brightness Sun altitude
Rises 03:59:56 0° 25° (NNE) 3,248 6.5 -25.6°
Reaches altitude 10° 04:02:54 10° 42° (NE) 2,315 6.0 -25.2°
Maximum altitude 04:06:33 20° 89° (E) 1,740 5.7 -24.6°
Drops below altitude 10° 04:10:12 10° 135° (SE) 2,302 6.1 -24.0°
Sets 04:13:07 0° 152° (SSE) 3,222 6.7 -23.6°
